• In Hungary
  • List of Countries
  • For 7 days
  • Water Temperature
  • Satellite Maps
  • Weather Map
  • News
  • Weather Widgets
  • user-avatar
    Login

    Hourly Weather Tachov

    Today, 21 September, Friday

    Time Temperature Precipitation Wind Pressure Humidity
    00:00 +16°C° 0 mm 1 mps 716 mmHg 85%
    01:00 +16°C° 0 mm 1 mps 715 mmHg 86%
    02:00 +16°C° 0 mm 1 mps 715 mmHg 87%
    03:00 +15°C° 0 mm 1 mps 714 mmHg 88%
    04:00 +15°C° 0 mm 1 mps 714 mmHg 88%
    05:00 +15°C° 0 mm 1 mps 714 mmHg 87%
    06:00 +15°C° 0 mm 2 mps 714 mmHg 87%
    07:00 +15°C° 0 mm 2 mps 714 mmHg 86%
    08:00 +17°C° 0 mm 2 mps 714 mmHg 78%
    09:00 +19°C° 0 mm 3 mps 713 mmHg 71%
    10:00 +21°C° 0 mm 3 mps 713 mmHg 63%
    11:00 +23°C° 0 mm 4 mps 713 mmHg 58%
    12:00 +25°C° 0 mm 5 mps 713 mmHg 53%
    13:00 +27°C° 0 mm 6 mps 713 mmHg 48%
    14:00 +26°C° 0.1 mm 5 mps 712 mmHg 51%
    15:00 +25°C° 0.1 mm 5 mps 712 mmHg 54%
    16:00 +25°C° 0.1 mm 4 mps 712 mmHg 57%
    17:00 +21°C° 0.3 mm 4 mps 713 mmHg 65%
    18:00 +19°C° 0.3 mm 5 mps 713 mmHg 72%
    19:00 +16°C° 0.3 mm 5 mps 714 mmHg 79%
    20:00 +14°C° 0.2 mm 4 mps 715 mmHg 81%
    21:00 +13°C° 0.2 mm 4 mps 715 mmHg 82%
    22:00 +11°C° 0.2 mm 3 mps 716 mmHg 84%
    23:00 +11°C° 0 mm 3 mps 717 mmHg 83%

    Tomorrow, 22 September, Saturday

    Time Temperature Precipitation Wind Pressure Humidity
    00:00 +10°C° 0 mm 3 mps 717 mmHg 83%
    01:00 +10°C° 0 mm 2 mps 718 mmHg 82%
    02:00 +9°C° 0 mm 3 mps 718 mmHg 82%
    03:00 +9°C° 0 mm 3 mps 718 mmHg 81%
    04:00 +9°C° 0 mm 3 mps 719 mmHg 81%
    05:00 +9°C° 0 mm 3 mps 719 mmHg 81%
    06:00 +8°C° 0 mm 3 mps 719 mmHg 81%
    07:00 +8°C° 0 mm 3 mps 719 mmHg 81%
    08:00 +10°C° 0 mm 4 mps 719 mmHg 73%
    09:00 +10°C° 0 mm 5 mps 720 mmHg 65%
    10:00 +12°C° 0 mm 5 mps 720 mmHg 57%
    11:00 +13°C° 0 mm 5 mps 720 mmHg 54%
    12:00 +14°C° 0 mm 5 mps 720 mmHg 52%
    13:00 +14°C° 0 mm 5 mps 720 mmHg 49%
    14:00 +14°C° 0 mm 5 mps 719 mmHg 50%
    15:00 +14°C° 0 mm 5 mps 719 mmHg 50%
    16:00 +14°C° 0 mm 5 mps 719 mmHg 51%
    17:00 +13°C° 0 mm 4 mps 719 mmHg 55%
    18:00 +12°C° 0 mm 3 mps 719 mmHg 60%
    19:00 +12°C° 0 mm 2 mps 719 mmHg 64%
    20:00 +10°C° 0 mm 2 mps 720 mmHg 67%
    21:00 +10°C° 0 mm 2 mps 720 mmHg 70%
    22:00 +9°C° 0 mm 2 mps 720 mmHg 72%
    23:00 +9°C° 0 mm 2 mps 720 mmHg 73%

    Day after tomorrow, 23 September, Sunday

    Time Temperature Precipitation Wind Pressure Humidity
    00:00 +8°C° 0 mm 2 mps 720 mmHg 74%
    01:00 +8°C° 0 mm 2 mps 720 mmHg 75%
    02:00 +8°C° 0.1 mm 2 mps 719 mmHg 76%
    03:00 +8°C° 0.1 mm 2 mps 719 mmHg 76%
    04:00 +9°C° 0.1 mm 2 mps 719 mmHg 77%
    05:00 +8°C° 0.5 mm 2 mps 719 mmHg 81%
    06:00 +8°C° 0.5 mm 2 mps 719 mmHg 86%
    07:00 +8°C° 0.5 mm 2 mps 718 mmHg 91%
    08:00 +9°C° 0.3 mm 2 mps 718 mmHg 91%
    09:00 +9°C° 0.3 mm 2 mps 718 mmHg 91%
    10:00 +9°C° 0.3 mm 3 mps 718 mmHg 90%
    11:00 +10°C° 0.2 mm 3 mps 717 mmHg 90%
    12:00 +11°C° 0.2 mm 3 mps 717 mmHg 90%
    13:00 +11°C° 0.2 mm 4 mps 716 mmHg 90%
    14:00 +12°C° 0.2 mm 4 mps 715 mmHg 90%
    15:00 +13°C° 0.2 mm 4 mps 714 mmHg 90%
    16:00 +15°C° 0.2 mm 4 mps 713 mmHg 91%
    17:00 +15°C° 0.1 mm 4 mps 713 mmHg 91%
    18:00 +16°C° 0.1 mm 5 mps 712 mmHg 91%
    19:00 +16°C° 0.1 mm 5 mps 712 mmHg 92%
    20:00 +16°C° 1.9 mm 5 mps 711 mmHg 92%
    21:00 +16°C° 1.9 mm 6 mps 710 mmHg 92%
    22:00 +16°C° 1.9 mm 6 mps 709 mmHg 93%
    23:00 +16°C° 3.6 mm 7 mps 708 mmHg 92%

    24 September, Monday

    Time Temperature Precipitation Wind Pressure Humidity
    00:00 +16°C° 3.6 mm 9 mps 707 mmHg 91%
    01:00 +17°C° 3.6 mm 10 mps 706 mmHg 89%
    02:00 +14°C° 0.9 mm 10 mps 708 mmHg 88%
    03:00 +12°C° 0.9 mm 10 mps 709 mmHg 87%
    04:00 +9°C° 0.9 mm 10 mps 710 mmHg 85%
    05:00 +8°C° 0.2 mm 9 mps 713 mmHg 85%
    06:00 +6°C° 0.2 mm 7 mps 715 mmHg 85%
    07:00 +4°C° 0.2 mm 6 mps 718 mmHg 85%
    08:00 +5°C° 0 mm 6 mps 719 mmHg 78%
    09:00 +7°C° 0 mm 6 mps 720 mmHg 71%
    10:00 +8°C° 0 mm 6 mps 722 mmHg 63%
    11:00 +9°C° 0 mm 6 mps 722 mmHg 62%
    12:00 +9°C° 0 mm 6 mps 722 mmHg 60%
    13:00 +10°C° 0 mm 6 mps 723 mmHg 58%
    14:00 +10°C° 0.1 mm 6 mps 723 mmHg 59%
    15:00 +9°C° 0.1 mm 5 mps 724 mmHg 59%
    16:00 +9°C° 0.1 mm 5 mps 724 mmHg 59%
    17:00 +8°C° 0.1 mm 4 mps 724 mmHg 64%
    18:00 +7°C° 0.1 mm 4 mps 725 mmHg 69%
    19:00 +7°C° 0.1 mm 3 mps 725 mmHg 73%
    20:00 +5°C° 0 mm 3 mps 726 mmHg 76%
    21:00 +5°C° 0 mm 3 mps 726 mmHg 79%
    22:00 +4°C° 0 mm 3 mps 726 mmHg 82%
    23:00 +4°C° 0 mm 2 mps 727 mmHg 84%

    25 September, Tuesday

    Time Temperature Precipitation Wind Pressure Humidity
    00:00 +4°C° 0 mm 2 mps 727 mmHg 86%
    01:00 +3°C° 0 mm 2 mps 727 mmHg 88%
    02:00 +3°C° 0 mm 2 mps 728 mmHg 90%
    03:00 +3°C° 0 mm 2 mps 728 mmHg 92%
    04:00 +2°C° 0 mm 2 mps 728 mmHg 93%
    05:00 +2°C° 0 mm 2 mps 729 mmHg 93%
    06:00 +3°C° 0 mm 1 mps 729 mmHg 92%
    07:00 +4°C° 0 mm 1 mps 729 mmHg 91%
    08:00 +5°C° 0 mm 2 mps 730 mmHg 81%
    09:00 +6°C° 0 mm 2 mps 730 mmHg 71%
    10:00 +8°C° 0 mm 3 mps 731 mmHg 61%
    11:00 +9°C° 0 mm 2 mps 731 mmHg 56%
    12:00 +10°C° 0 mm 2 mps 731 mmHg 52%
    13:00 +12°C° 0 mm 2 mps 731 mmHg 47%
    14:00 +12°C° 0 mm 2 mps 731 mmHg 48%
    15:00 +12°C° 0 mm 2 mps 731 mmHg 49%
    16:00 +12°C° 0 mm 2 mps 731 mmHg 50%
    17:00 +9°C° 0 mm 2 mps 731 mmHg 57%
    18:00 +8°C° 0 mm 1 mps 731 mmHg 64%
    19:00 +6°C° 0 mm 1 mps 730 mmHg 70%
    20:00 +6°C° 0 mm 1 mps 731 mmHg 73%
    21:00 +5°C° 0 mm 1 mps 731 mmHg 75%
    22:00 +4°C° 0 mm 0 mps 731 mmHg 77%
    23:00 +3°C° 0 mm 0 mps 731 mmHg 78%

    26 September, Wednesday

    Time Temperature Precipitation Wind Pressure Humidity
    00:00 +3°C° 0 mm 0 mps 731 mmHg 79%
    01:00 +3°C° 0 mm 0 mps 730 mmHg 79%
    02:00 +3°C° 0 mm 0 mps 730 mmHg 79%
    03:00 +2°C° 0 mm 0 mps 730 mmHg 79%
    04:00 +2°C° 0 mm 0 mps 730 mmHg 79%
    05:00 +3°C° 0 mm 0 mps 730 mmHg 78%
    06:00 +3°C° 0 mm 0 mps 730 mmHg 76%
    07:00 +3°C° 0 mm 0 mps 731 mmHg 74%
    08:00 +7°C° 0 mm 1 mps 731 mmHg 65%
    09:00 +10°C° 0 mm 1 mps 731 mmHg 56%
    10:00 +12°C° 0 mm 1 mps 731 mmHg 47%
    11:00 +14°C° 0 mm 1 mps 731 mmHg 44%
    12:00 +15°C° 0 mm 1 mps 731 mmHg 42%
    13:00 +16°C° 0 mm 1 mps 730 mmHg 39%
    14:00 +16°C° 0 mm 1 mps 730 mmHg 41%
    15:00 +16°C° 0 mm 1 mps 730 mmHg 42%
    16:00 +15°C° 0 mm 1 mps 729 mmHg 43%
    17:00 +13°C° 0 mm 1 mps 729 mmHg 50%
    18:00 +11°C° 0 mm 1 mps 729 mmHg 56%
    19:00 +8°C° 0 mm 0 mps 729 mmHg 63%
    20:00 +7°C° 0 mm 0 mps 729 mmHg 64%
    21:00 +7°C° 0 mm 0 mps 729 mmHg 66%
    22:00 +6°C° 0 mm 0 mps 729 mmHg 67%
    23:00 +6°C° 0 mm 0 mps 729 mmHg 68%
    Show more